Regional Weather Roundup
Issued by NWS Green Bay, WI

Home | Current Version | Previous Version | Graphics & Text | Print | Product List | Glossary Off
Versions: 1 2 3 4 5 6 7 8 9 10 11 12 13 14 15 16 17 18 19 20 21 22 23 24 25 26 27 28 29 30 31 32 33 34 35 36 37 38 39 40 41 42 43 44 45 46 47 48 49 50

000
ASUS43 KGRB 120111
RWRGRB

NORTH-CENTRAL AND NORTHEAST WISCONSIN REGIONAL WEATHER ROUNDUP
NATIONAL WEATHER SERVICE GREEN BAY WI
700 PM CST THU FEB 11 2016

WIZ005-009-010>012-018-019-120200-
NORTH CENTRAL WISCONSIN

CITY           SKY/WX    TMP DP  RH WIND       PRES   REMARKS
IRONWOOD       CLOUDY    10   0  61 W9        30.09S WCI  -2
MANITOWISH WTR CLOUDY    11  -4  51 W8        30.08S WCI  -1
ARBOR VITAE    CLOUDY    14  -1  51 W8        30.08S WCI   3
EAGLE RIVER    CLOUDY    12  -6  45 CALM      30.07S
LAND O LAKES   CLOUDY    11  -3  52 W5        30.07S WCI   3
RHINELANDER    CLOUDY    12  -4  48 W12       30.09S WCI  -2
PHILLIPS       CLOUDY    11  -5  49 SW8       30.13R WCI  -1
ANTIGO         CLOUDY     9  -4  54 SW12      30.12S WCI  -5
TOMAHAWK       CLOUDY    13  -5  44 W7        30.13S WCI   2
MERRILL        CLOUDY    12  -5  46 W12       30.16S WCI  -2
$$

WIZ013-073-120200-
NORTHEAST WISCONSIN

CITY           SKY/WX    TMP DP  RH WIND       PRES   REMARKS
IRON MOUNTAIN  CLOUDY    15  -3  44 SW6       30.07F WCI   6
MARINETTE      PTCLDY    16  -2  45 W6        30.16R WCI   7
OCONTO         MOCLDY    13  -1  53 SW7       30.19R WCI   2
$$

WIZ017-030-035>037-045-120200-
CENTRAL WISCONSIN

CITY           SKY/WX    TMP DP  RH WIND       PRES   REMARKS
MEDFORD        CLOUDY    11  -4  50 W7        30.15S WCI   0
WAUSAU         CLOUDY    14  -1  51 NW3       30.16R
MOSINEE        CLOUDY    12   1  62 W7        30.17F WCI   2
MARSHFIELD     CLOUDY    14  -4  44 W10       30.17R WCI   1
WISC RAPIDS    CLOUDY    16  -5  39 W7        30.21S WCI   6
STEVENS POINT  CLOUDY    12  -4  48 SW3       30.19S
WAUPACA        CLOUDY    15  -1  49 CALM      30.21S
SHAWANO        CLOUDY    17  -5  38 W7        30.20R WCI   7
CLINTONVILLE   CLOUDY    16  -4  41 W6        30.20R WCI   7
WAUTOMA        CLOUDY    14  -4  44 SW6       30.23R WCI   5
$$

WIZ038-039-048-051-120200-
FOX VALLEY

CITY           SKY/WX    TMP DP  RH WIND       PRES   REMARKS
NWS GREEN BAY  CLOUDY    13  -2  51 SW7       30.21R WCI   3
APPLETON       MOCLDY    12  -6  44 SW6       30.19R WCI   3
OSHKOSH        CLOUDY    11  -2  56 SW6       30.22R WCI   1
FOND DU LAC    MOCLDY    11  -1  58 SW6       30.23R WCI   1
$$

WIZ022-050-052-120200-
EAST CENTRAL WISCONSIN

CITY           SKY/WX    TMP DP  RH WIND       PRES   REMARKS
EPHRAIM        MOCLDY    14   0  55 SW7       30.14F WCI   3
STURGEON BAY   PTCLDY    12  -2  52 SW12      30.19S WCI  -2
MANITOWOC      CLEAR     10   1  67 SW6       30.23R WCI   0
SHEBOYGAN      CLEAR     10  -2  58 SW6       30.23S WCI   0
$$

LMZ563-521-522-541>543-120200-
LAKESHORE

STATION/POSITION TIME  TEMP    WIND        PRES    VSBY  WAVE
                       AIR SEA DIR/SP/G                  HT/PER
                 (UTC) (F)     (DEG/KT/KT) (MB)    (MI)  (FT/S)
SHEBOYGAN LKSHOR 0100   15     240/  7/  8 1025.7R
KEWAUNEE LKSHORE 0000   14     240/  5/  7 1021.9F
CHAMBERS ISLAND  0000   16     190/  6/ 11 1021.3
MENOMINEE LKSHOR 0000   17     210/  8     1020.4F
$$



USA.gov is the U.S. government's official web portal to all federal, state and local government web resources and services.